Tracking 20719 objects as of 25-May-2020
HD Live streaming from Space Station
objects crossing your sky now

FLOCK 3K 8

Track FLOCK 3K 8 now!
10-day predictions
FLOCK 3K 8 is classified as:


NORAD ID: 43901
Int'l Code: 2018-111AB
Perigee: 482.2 km
Apogee: 509.9 km
Inclination: 97.3 °
Period: 94.4 minutes
Semi major axis: 6867 km
RCS: Unknown
Launch date: December 27, 2018
Source: United States (US)
Launch site: VOSTOCHNY COSMODROME (VOSTO)
aabbcc
Your satellite tracking list
Your tracking list is empty




NASA's NSSDC Master Catalog

Two Line Element Set (TLE):
1 43901U 18111AB  20144.79225469 +.00000630 +00000-0 +27448-4 0  9992
2 43901 097.2677 045.5254 0020205 229.0916 130.8573 15.25619021078273
Source of the keplerian elements: AFSPC